KB1GNF Weather Reports


Display with metric or nautical units.
time (UTC)temp
F
wind
direction
speed
MPH
gust
MPH
rain 1hr
in
rain 24hr
in
rain mn
in
humidity
%
barometer
mb
20260904065003 65 205 0.0 0.0 0.00 0.02 0.00 98 1010.8
20260904064507 65 205 0.0 0.0 0.00 0.02 0.00 98 1010.8
20260904064006 65 205 0.0 0.0 0.00 0.02 0.00 98 1010.7
20260904063503 65 205 0.0 0.0 0.00 0.02 0.00 98 1010.9
20260904063004 65 205 0.0 0.0 0.00 0.02 0.00 98 1011.0
20260904062504 65 205 0.0 0.0 0.00 0.02 0.00 98 1011.0
20260904062003 65 205 0.0 0.0 0.00 0.02 0.00 98 1010.9
20260904061514 65 206 0.0 0.0 0.00 0.02 0.00 98 1011.0
20260904061006 65 205 0.0 0.0 0.00 0.02 0.00 98 1010.9
20260904060504 65 205 0.0 0.0 0.00 0.03 0.00 98 1011.0
20260904060009 65 205 0.0 0.0 0.00 0.03 0.00 98 1011.1
20260904055503 65 205 0.0 0.0 0.00 0.03 0.00 98 1011.2
20260904055004 65 205 0.0 0.0 0.00 0.03 0.00 98 1011.2
20260904054514 65 205 0.0 0.0 0.00 0.03 0.00 98 1011.2
20260904054002 65 205 0.0 1.0 0.00 0.03 0.00 98 1011.3
20260904053503 65 205 0.0 1.0 0.00 0.03 0.00 98 1011.4
20260904053008 65 330 0.0 1.0 0.00 0.03 0.00 98 1011.5
20260904052504 65 331 0.0 0.0 0.00 0.03 0.00 97 1011.5
20260904052004 65 331 0.0 0.0 0.00 0.03 0.00 97 1011.6
20260904051519 65 328 0.0 0.0 0.00 0.03 0.00 97 1011.7
20260904051004 65 328 0.0 1.0 0.00 0.03 0.00 97 1011.7
20260904050504 65 328 0.0 1.0 0.00 0.03 0.00 97 1011.8
20260904050007 65 328 0.0 1.0 0.00 0.03 0.00 97 1011.8
20260904045506 65 259 0.0 1.0 0.00 0.03 0.00 97 1011.8
20260904045005 65 259 0.0 1.0 0.00 0.03 0.00 97 1011.8
20260904044509 65 259 0.0 1.0 0.00 0.03 0.00 97 1011.8
20260904044006 66 259 0.0 1.0 0.00 0.03 0.00 97 1011.8
20260904043504 66 246 0.0 0.0 0.00 0.03 0.00 97 1011.8
20260904043008 66 247 0.0 0.0 0.00 0.03 0.00 98 1011.8
20260904042504 66 247 0.0 0.0 0.00 0.03 0.00 97 1011.8
20260904042006 66 247 0.0 0.0 0.00 0.03 0.00 97 1011.8
20260904041519 66 246 0.0 0.0 0.00 0.03 0.00 98 1011.9
20260904041006 66 246 0.0 0.0 0.00 0.03 0.00 97 1011.9
20260904040506 66 246 0.0 0.0 0.00 0.03 0.00 97 1011.9
20260904040020 66 247 0.0 0.0 0.00 0.03 0.00 97 1011.9
20260904035504 66 246 0.0 0.0 0.00 0.03 0.03 97 1011.9
20260904035003 66 247 0.0 0.0 0.00 0.03 0.03 97 1011.8
20260904034508 66 247 0.0 1.0 0.00 0.03 0.03 97 1012.1
20260904034004 66 246 0.0 1.0 0.00 0.03 0.03 97 1012.1
20260904033504 66 246 0.0 1.0 0.00 0.03 0.03 97 1012.1
20260904033009 66 246 0.0 1.0 0.00 0.03 0.03 97 1012.1
20260904032504 66 247 0.0 1.0 0.00 0.03 0.03 97 1012.1
20260904032004 66 247 0.0 0.0 0.00 0.03 0.03 97 1012.0
20260904031510 66 246 0.0 0.0 0.00 0.03 0.03 97 1012.1
20260904031008 66 246 0.0 0.0 0.00 0.03 0.03 97 1012.2
20260904030506 66 246 0.0 0.0 0.00 0.03 0.03 97 1012.3
20260904030014 66 246 0.0 0.0 0.00 0.03 0.03 97 1012.3
20260904025504 66 247 0.0 0.0 0.00 0.03 0.03 97 1012.3
20260904025008 66 247 0.0 0.0 0.00 0.03 0.03 97 1012.3
20260904024514 66 247 0.0 0.0 0.00 0.03 0.03 97 1012.3
20260904024008 67 247 0.0 0.0 0.00 0.03 0.03 97 1012.3
20260904023510 67 246 0.0 1.0 0.00 0.03 0.03 97 1012.3
20260904023014 67 246 0.0 1.0 0.00 0.03 0.03 97 1012.4
20260904022507 67 246 0.0 1.0 0.00 0.03 0.03 97 1012.4
20260904022004 67 247 0.0 1.0 0.00 0.03 0.03 97 1012.3
20260904021517 67 246 0.0 1.0 0.00 0.03 0.03 97 1012.4
20260904021011 67 247 0.0 0.0 0.00 0.03 0.03 97 1012.5
20260904020506 67 247 0.0 0.0 0.00 0.03 0.03 97 1012.5
20260904020018 67 246 0.0 0.0 0.00 0.03 0.03 97 1012.5
20260904015507 67 246 0.0 0.0 0.00 0.03 0.03 97 1012.3
20260904015010 67 246 0.0 1.0 0.00 0.03 0.03 97 1012.5
20260904014516 67 247 0.0 1.0 0.00 0.03 0.03 97 1012.7
20260904014010 67 247 0.0 0.0 0.00 0.03 0.03 97 1012.6
20260904013505 67 246 0.0 0.0 0.00 0.03 0.03 97 1012.7
20260904013022 67 246 0.0 0.0 0.00 0.03 0.03 97 1012.6
20260904012506 67 247 0.0 0.0 0.00 0.03 0.03 96 1012.5
20260904012008 68 247 0.0 0.0 0.00 0.03 0.03 96 1012.7
20260904011517 68 246 0.0 0.0 0.00 0.03 0.03 96 1012.6
20260904011010 68 247 0.0 0.0 0.00 0.03 0.03 96 1012.6
20260904010508 68 246 0.0 0.0 0.00 0.03 0.03 96 1012.4
20260904010006 68 246 0.0 0.0 0.00 0.03 0.03 96 1012.4
20260904005501 68 246 0.0 0.0 0.00 0.03 0.03 96 1012.4
20260904005002 68 246 0.0 0.0 0.00 0.03 0.03 96 1012.4
20260904004503 68 247 0.0 0.0 0.00 0.03 0.03 96 1012.4
20260904004003 69 247 0.0 1.0 0.00 0.03 0.03 96 1012.4
20260904003508 69 247 0.0 1.0 0.00 0.03 0.03 95 1012.4
20260904003009 69 246 0.0 0.0 0.00 0.03 0.03 95 1012.3
20260904002504 69 246 0.0 0.0 0.00 0.03 0.03 95 1012.1
20260904002005 69 247 0.0 0.0 0.00 0.03 0.03 95 1012.1
20260904001516 69 246 0.0 0.0 0.00 0.03 0.03 94 1012.1
20260904001006 69 246 0.0 1.0 0.00 0.03 0.03 94 1012.0
20260904000506 69 246 0.0 1.0 0.00 0.03 0.03 94 1011.9
20260904000028 70 246 0.0 0.0 0.00 0.03 0.03 94 1011.8
20260903235509 70 246 0.0 0.0 0.00 0.03 0.03 94 1011.8
20260903235009 70 246 0.0 0.0 0.00 0.03 0.03 93 1011.8
20260903234521 70 246 0.0 0.0 0.00 0.03 0.03 93 1011.7
20260903234003 70 246 0.0 0.0 0.00 0.03 0.03 93 1011.6
20260903233503 70 246 0.0 1.0 0.00 0.03 0.03 93 1011.7
20260903233004 71 247 0.0 1.0 0.00 0.03 0.03 92 1011.7
20260903232504 71 247 0.0 0.0 0.00 0.03 0.03 92 1011.6
20260903232004 71 246 0.0 1.0 0.00 0.03 0.03 92 1011.6
20260903231508 72 247 0.0 1.0 0.00 0.03 0.03 91 1011.6
20260903231003 72 246 0.0 1.0 0.00 0.03 0.03 91 1011.6
20260903230506 72 247 0.0 1.0 0.00 0.03 0.03 91 1011.7
20260903230012 73 246 0.0 1.0 0.00 0.03 0.03 90 1011.8
20260903225508 73 247 0.0 1.0 0.00 0.03 0.03 89 1011.7
20260903225009 74 247 0.0 0.0 0.00 0.03 0.03 88 1011.6
20260903224516 74 246 0.0 1.0 0.00 0.03 0.03 88 1011.6
20260903224010 74 246 0.0 1.0 0.00 0.03 0.03 87 1011.8
20260903223509 75 245 0.0 1.0 0.00 0.03 0.03 87 1011.8
20260903223031 75 250 0.0 1.0 0.00 0.03 0.03 86 1011.8
20260903222503 75 238 0.0 3.0 0.00 0.03 0.03 85 1011.8
20260903222004 76 243 1.0 3.0 0.00 0.03 0.03 84 1011.8
20260903221503 76 207 2.0 3.0 0.00 0.03 0.03 83 1011.7
20260903221003 76 245 1.0 3.0 0.00 0.03 0.03 83 1011.7
20260903220504 77 205 0.0 3.0 0.00 0.03 0.03 82 1011.7
20260903220008 77 224 0.0 2.0 0.00 0.03 0.03 82 1011.6
20260903215507 76 245 1.0 4.0 0.00 0.03 0.03 83 1011.7
20260903215007 76 206 1.0 4.0 0.00 0.03 0.03 82 1011.9
20260903214519 76 226 1.0 4.0 0.00 0.03 0.03 82 1012.1
20260903214006 76 240 1.0 5.0 0.00 0.03 0.03 82 1012.4
20260903213508 77 279 2.0 6.0 0.00 0.03 0.03 81 1012.2
20260903213023 77 251 3.0 7.0 0.00 0.03 0.03 81 1012.1
20260903212512 77 255 3.0 7.0 0.00 0.03 0.03 81 1012.0
20260903212016 77 205 4.0 7.0 0.00 0.03 0.03 80 1012.0
20260903211528 77 245 3.0 7.0 0.00 0.03 0.03 80 1012.0
20260903211007 77 252 2.0 7.0 0.00 0.03 0.03 80 1012.0
20260903210503 78 252 4.0 7.0 0.00 0.03 0.03 80 1011.9
20260903210007 78 239 3.0 7.0 0.00 0.03 0.03 80 1011.9
20260903205508 78 191 3.0 7.0 0.00 0.03 0.03 81 1011.9
20260903205004 78 208 1.0 7.0 0.00 0.03 0.03 81 1012.0
20260903204512 78 175 3.0 7.0 0.00 0.03 0.03 80 1012.0
20260903204007 78 162 4.0 7.0 0.00 0.03 0.03 80 1012.0
20260903203506 78 210 3.0 6.0 0.00 0.03 0.03 79 1011.9
20260903203029 78 126 1.0 6.0 0.00 0.03 0.03 80 1012.0
20260903202508 78 152 4.0 6.0 0.00 0.03 0.03 78 1012.1
20260903202012 78 224 2.0 7.0 0.00 0.03 0.03 79 1012.0
20260903201525 79 238 4.0 7.0 0.00 0.03 0.03 77 1012.0
20260903201010 79 214 3.0 6.0 0.00 0.03 0.03 77 1012.0
20260903200514 78 250 3.0 5.0 0.00 0.03 0.03 78 1012.1
20260903200031 78 243 1.0 5.0 0.00 0.03 0.03 79 1012.1
20260903195511 78 190 3.0 5.0 0.00 0.03 0.03 79 1012.1
20260903195004 78 243 1.0 3.0 0.00 0.03 0.03 81 1012.2
20260903194508 77 158 0.0 2.0 0.00 0.03 0.03 80 1012.3
20260903194005 77 198 0.0 2.0 0.00 0.03 0.03 80 1012.4
20260903193504 77 225 0.0 2.0 0.00 0.03 0.03 81 1012.4
20260903193017 77 176 0.0 2.0 0.00 0.03 0.03 82 1012.3
20260903192506 77 110 0.0 2.0 0.00 0.03 0.03 82 1012.4
20260903192010 77 203 0.0 0.0 0.00 0.03 0.03 81 1012.5
20260903191523 77 205 0.0 1.0 0.00 0.03 0.03 81 1012.5
20260903191012 76 205 0.0 1.0 0.00 0.03 0.03 81 1012.6
20260903190514 76 203 0.0 2.0 0.00 0.03 0.03 81 1012.7
20260903190027 76 221 1.0 2.0 0.00 0.03 0.03 81 1012.7
20260903185518 76 226 0.0 2.0 0.00 0.03 0.03 82 1012.7
20260903185016 76 231 0.0 3.0 0.00 0.03 0.03 83 1012.8
20260903184530 75 244 1.0 3.0 0.00 0.03 0.03 83 1012.7
20260903184014 75 250 1.0 3.0 0.00 0.03 0.03 83 1012.8
20260903183504 75 250 1.0 3.0 0.00 0.03 0.03 83 1012.9
20260903183009 75 257 0.0 3.0 0.00 0.03 0.03 83 1012.8
20260903182505 76 252 1.0 4.0 0.00 0.03 0.03 82 1012.8
20260903182005 76 226 1.0 5.0 0.00 0.03 0.03 82 1012.8
20260903181514 76 176 2.0 5.0 0.00 0.03 0.03 81 1012.8
20260903181010 76 183 2.0 5.0 0.00 0.03 0.03 81 1012.8
20260903180510 76 196 2.0 4.0 0.00 0.03 0.03 81 1012.9
20260903180033 77 86 1.0 6.0 0.00 0.03 0.03 80 1012.9
20260903175511 77 228 3.0 6.0 0.00 0.03 0.03 80 1012.8
20260903175014 77 89 1.0 4.0 0.00 0.03 0.03 82 1012.7
20260903174528 76 96 1.0 4.0 0.00 0.03 0.03 82 1012.8
20260903174018 76 78 1.0 3.0 0.00 0.03 0.03 84 1012.9
20260903173514 75 96 1.0 4.0 0.00 0.03 0.03 84 1012.9
20260903173031 74 117 1.0 4.0 0.00 0.03 0.03 84 1013.0
20260903172514 74 85 2.0 6.0 0.00 0.03 0.03 83 1013.1
20260903172006 75 98 3.0 6.0 0.00 0.03 0.03 82 1013.3
20260903171512 75 171 2.0 5.0 0.00 0.03 0.03 83 1013.3
20260903171011 75 81 2.0 5.0 0.00 0.03 0.03 83 1013.4
20260903170506 75 173 2.0 7.0 0.00 0.03 0.03 83 1013.5
20260903170021 75 176 3.0 8.0 0.00 0.03 0.03 82 1013.6
20260903165511 75 239 3.0 8.0 0.00 0.03 0.03 86 1013.6
20260903165012 74 146 1.0 5.0 0.00 0.03 0.03 84 1013.6
20260903164526 73 165 2.0 6.0 0.00 0.03 0.03 85 1013.7
20260903164013 73 191 3.0 6.0 0.00 0.03 0.03 85 1013.8
20260903163517 73 198 1.0 4.0 0.00 0.03 0.03 85 1013.9
20260903163031 72 192 1.0 5.0 0.00 0.03 0.03 86 1013.9
20260903162517 72 234 1.0 5.0 0.00 0.03 0.03 86 1013.8
20260903162014 72 219 3.0 4.0 0.00 0.03 0.03 85 1013.8
20260903161536 72 189 2.0 5.0 0.00 0.03 0.03 86 1013.9
20260903161019 72 205 1.0 6.0 0.00 0.03 0.03 86 1013.9
20260903160516 72 211 2.0 7.0 0.00 0.03 0.03 86 1013.9
20260903160045 71 195 4.0 7.0 0.00 0.03 0.03 87 1014.0
20260903155510 71 171 3.0 6.0 0.00 0.03 0.03 87 1014.0
20260903155010 70 163 1.0 5.0 0.00 0.03 0.03 87 1014.1
20260903154504 70 172 2.0 5.0 0.00 0.03 0.03 88 1014.1
20260903154004 70 154 0.0 4.0 0.00 0.03 0.03 89 1013.9
20260903153504 69 197 1.0 4.0 0.00 0.03 0.03 89 1013.9
20260903153003 69 153 1.0 5.0 0.00 0.03 0.03 89 1013.9
20260903152506 68 204 2.0 5.0 0.00 0.03 0.03 89 1014.0
20260903152004 68 203 1.0 5.0 0.00 0.03 0.03 90 1014.1
20260903151508 68 211 1.0 5.0 0.00 0.03 0.03 90 1014.2
20260903151005 68 245 2.0 5.0 0.00 0.03 0.03 90 1014.4
20260903150506 67 158 2.0 5.0 0.00 0.03 0.03 90 1014.4
20260903150023 67 152 2.0 5.0 0.00 0.03 0.03 91 1014.6
20260903145505 67 195 0.0 3.0 0.00 0.03 0.03 91 1014.7
20260903145013 66 193 0.0 2.0 0.00 0.03 0.03 92 1014.7
20260903144522 66 203 1.0 2.0 0.00 0.03 0.03 92 1014.7
20260903144012 66 162 1.0 2.0 0.00 0.03 0.03 93 1014.7
20260903143511 65 146 0.0 2.0 0.00 0.03 0.03 93 1014.5
20260903143011 65 200 0.0 2.0 0.00 0.03 0.03 93 1014.5
20260903142504 65 219 1.0 3.0 0.00 0.03 0.03 94 1014.6
20260903142003 65 199 0.0 3.0 0.00 0.03 0.03 94 1014.7
20260903141512 64 163 0.0 2.0 0.00 0.03 0.03 94 1014.7
20260903141004 64 77 0.0 1.0 0.00 0.03 0.03 94 1014.7
20260903140504 64 211 0.0 4.0 0.00 0.03 0.03 94 1014.8
20260903140009 64 232 2.0 4.0 0.00 0.03 0.03 94 1014.7
20260903135507 64 217 1.0 4.0 0.00 0.03 0.03 95 1014.6
20260903135012 64 237 2.0 4.0 0.00 0.03 0.03 95 1014.6
20260903134517 63 202 0.0 3.0 0.00 0.03 0.03 95 1014.6
20260903134011 63 200 0.0 2.0 0.00 0.03 0.03 95 1014.6
20260903133508 63 215 0.0 3.0 0.00 0.03 0.03 95 1014.8
20260903133028 63 228 1.0 3.0 0.00 0.03 0.03 95 1014.8
20260903132513 63 200 1.0 2.0 0.00 0.03 0.03 96 1014.9
20260903132012 63 185 1.0 3.0 0.00 0.03 0.03 95 1014.9
20260903131528 63 245 1.0 3.0 0.00 0.03 0.03 96 1015.1
20260903131004 62 223 1.0 3.0 0.00 0.03 0.03 96 1015.0
20260903130503 62 225 1.0 4.0 0.00 0.03 0.03 96 1015.0
20260903130005 62 191 2.0 4.0 0.00 0.03 0.03 96 1015.1
20260903125510 62 200 1.0 3.0 0.00 0.03 0.03 96 1015.0
20260903125005 62 197 1.0 4.0 0.00 0.03 0.03 96 1015.1
20260903124512 62 207 1.0 5.0 0.00 0.03 0.03 96 1015.1
20260903124005 62 232 1.0 5.0 0.00 0.03 0.03 96 1015.3
20260903123512 62 221 2.0 5.0 0.00 0.03 0.03 96 1015.4
20260903123018 62 262 1.0 3.0 0.00 0.03 0.03 96 1015.5
20260903122512 62 176 1.0 3.0 0.00 0.03 0.03 96 1015.6
20260903122013 61 233 1.0 4.0 0.00 0.03 0.03 96 1015.5
20260903121525 62 164 0.0 4.0 0.00 0.03 0.03 96 1015.5
20260903121015 61 221 1.0 4.0 0.00 0.03 0.03 96 1015.6
20260903120511 61 201 2.0 3.0 0.00 0.03 0.03 96 1015.6
20260903120027 61 247 0.0 1.0 0.00 0.03 0.03 96 1015.6
20260903115506 61 243 0.0 2.0 0.01 0.03 0.03 96 1015.7
20260903115003 61 199 0.0 2.0 0.01 0.03 0.03 96 1015.7
20260903114511 61 257 1.0 2.0 0.01 0.03 0.03 96 1015.7
20260903114003 61 214 1.0 2.0 0.01 0.03 0.03 96 1015.7
20260903113504 61 225 0.0 0.0 0.01 0.03 0.03 96 1015.6
20260903113024 61 226 0.0 0.0 0.01 0.03 0.03 96 1015.6
20260903112511 61 211 0.0 0.0 0.01 0.03 0.03 96 1015.6
20260903112009 61 216 0.0 0.0 0.01 0.03 0.03 96 1015.6
20260903111526 61 240 0.0 0.0 0.01 0.03 0.03 96 1015.6
20260903111011 61 167 0.0 0.0 0.01 0.03 0.03 96 1015.7
20260903110514 61 166 0.0 0.0 0.01 0.03 0.03 96 1015.7
20260903110029 61 166 0.0 0.0 0.01 0.03 0.03 96 1015.7
20260903105513 61 166 0.0 0.0 0.00 0.02 0.02 96 1015.7
20260903105015 61 166 0.0 0.0 0.00 0.02 0.02 96 1015.6
20260903104530 61 166 0.0 0.0 0.00 0.02 0.02 96 1015.6
20260903104004 61 166 0.0 0.0 0.00 0.02 0.02 96 1015.5
20260903103503 61 165 0.0 0.0 0.00 0.02 0.02 96 1015.3
20260903103014 61 172 0.0 0.0 0.00 0.02 0.02 96 1015.4
20260903102508 61 172 0.0 0.0 0.00 0.02 0.02 96 1015.4
20260903102008 61 172 0.0 0.0 0.00 0.02 0.02 96 1015.4
20260903101524 61 172 0.0 0.0 0.00 0.02 0.02 96 1015.5
20260903101012 61 172 0.0 0.0 0.00 0.02 0.02 96 1015.5
20260903100511 61 172 0.0 0.0 0.00 0.02 0.02 95 1015.5
20260903100028 61 172 0.0 0.0 0.00 0.02 0.02 95 1015.4
20260903095515 61 172 0.0 0.0 0.00 0.02 0.02 95 1015.4
20260903095012 61 173 0.0 0.0 0.00 0.02 0.02 95 1015.5
20260903094535 61 175 0.0 0.0 0.00 0.02 0.02 95 1015.4
20260903094017 61 178 0.0 1.0 0.00 0.02 0.02 95 1015.6
20260903093516 61 177 0.0 2.0 0.00 0.02 0.02 95 1015.6
20260903093041 61 207 0.0 2.0 0.00 0.02 0.02 95 1015.6
20260903092518 61 225 0.0 3.0 0.00 0.02 0.02 95 1015.6
20260903092006 61 212 0.0 3.0 0.00 0.02 0.02 95 1015.5
20260903091516 61 159 1.0 4.0 0.01 0.02 0.02 95 1015.4
20260903091008 61 153 2.0 4.0 0.01 0.02 0.02 94 1015.5
20260903090506 61 186 1.0 3.0 0.01 0.02 0.02 94 1015.6
20260903090031 61 136 1.0 3.0 0.01 0.02 0.02 94 1015.7
20260903085511 61 158 1.0 1.0 0.01 0.02 0.02 94 1015.9
20260903085009 61 160 0.0 3.0 0.01 0.02 0.02 94 1016.0
20260903084530 61 205 0.0 3.0 0.01 0.02 0.02 93 1016.1
20260903084014 61 174 0.0 2.0 0.01 0.02 0.02 93 1016.1
20260903083516 61 242 0.0 2.0 0.01 0.02 0.02 93 1016.2
20260903083028 61 203 0.0 2.0 0.01 0.02 0.02 92 1016.1
20260903082516 61 227 0.0 2.0 0.01 0.02 0.02 92 1016.0
20260903082018 61 205 0.0 2.0 0.01 0.02 0.02 92 1016.1
20260903081533 61 230 1.0 2.0 0.00 0.01 0.01 91 1016.1
20260903081016 62 210 0.0 1.0 0.00 0.01 0.01 92 1016.1
20260903080508 62 210 0.0 0.0 0.00 0.01 0.01 92 1016.0
20260903080028 62 210 0.0 0.0 0.00 0.01 0.01 91 1015.9
20260903075511 62 210 0.0 0.0 0.00 0.01 0.01 91 1016.0
20260903075009 62 210 0.0 0.0 0.00 0.01 0.01 91 1016.1
20260903074527 62 210 0.0 1.0 0.00 0.01 0.01 91 1016.2
20260903074016 62 177 0.0 1.0 0.00 0.01 0.01 91 1015.9
20260903073513 62 207 0.0 1.0 0.00 0.01 0.01 91 1015.8
20260903073037 62 105 0.0 1.0 0.00 0.01 0.01 91 1016.0
20260903072514 62 158 0.0 1.0 0.00 0.01 0.01 90 1016.1
20260903072015 62 219 0.0 1.0 0.00 0.01 0.01 91 1016.4
20260903071536 62 229 0.0 1.0 0.00 0.01 0.01 91 1016.4
20260903071015 61 259 0.0 1.0 0.00 0.01 0.01 91 1016.4
20260903070516 61 254 0.0 1.0 0.01 0.01 0.01 91 1016.5
20260903070032 61 253 0.0 1.0 0.01 0.01 0.01 91 1016.5
20260903065518 62 264 0.0 1.0 0.01 0.01 0.01 91 1016.6